Weather History for Hays, KS

Change the Weather History Date:

Friday, November 9, 2012

  Actual Average Record
Temperature  
Mean Temperature 52 °F -  
Max Temperature 69 °F 53 °F 75 °F (1999)
Min Temperature 35 °F 31 °F 17 °F (2000)
Degree Days  
Heating Degree Days 13    
Growing Degree Days 2 (Base 50)    
Moisture  
Dew Point 35 °F    
Average Humidity 59    
Maximum Humidity 81    
Minimum Humidity 35    
Precipitation  
Precipitation 0.00 in - - ()
Sea Level Pressure  
Sea Level Pressure 29.70 in    
Wind  
Wind Speed 6 mph (NNE)    
Max Wind Speed 15 mph    
Max Gust Speed -    
Visibility 10 miles    
Events      
Averages and records for this station are not official NWS values.
T = Trace of Precipitation, MM = Missing Value Source: NWS Daily Summary

Daily Weather History Graph

Daily Weather History Graph

Search for Another Location

Airport:

Trip Planner

Search our weather history database for the weather conditions in past years. The results will help you decide how hot, cold, wet, or windy it might be!

Date:

Astronomy

Nov. 09, 2012 Rise Set
Actual Time 7:13 AM CST 5:27 PM CST
Civil Twilight 6:45 AM CST 5:56 PM CST
Nautical Twilight 6:13 AM CST 6:27 PM CST
Astronomical Twilight 5:42 AM CST 6:59 PM CST
Moon 2:16 AM CST (11/9) 2:39 PM CST (11/9)
Length of Visible Light 11h 10m
Length of Day
10h 14m
Waning Crescent, 23% of the Moon is Illuminated
Nov 9
Waning Crescent
Nov 13
New
Nov 20
First Quarter
Nov 28
Full
Dec 6
Last Quarter

Hourly Weather History & Observations

Time (CST) Temp. Windchill Dew Point Humidity Pressure Visibility Wind Dir Wind Speed Gust Speed Precip Events Conditions
12:15 AM 41.0 °F 37.1 °F 32.0 °F 70% 29.81 in 10.0 mi NW 5.8 mph - N/A   Clear
12:35 AM 41.0 °F 37.1 °F 32.0 °F 70% 29.81 in 10.0 mi NW 5.8 mph - N/A   Clear
12:55 AM 41.0 °F 36.4 °F 32.0 °F 70% 29.80 in 10.0 mi NNW 6.9 mph - N/A   Clear
1:15 AM 39.2 °F 34.2 °F 30.2 °F 70% 29.78 in 10.0 mi NNW 6.9 mph - N/A   Clear
1:35 AM 39.2 °F 33.6 °F 30.2 °F 70% 29.78 in 10.0 mi NNW 8.1 mph - N/A   Clear
1:55 AM 39.2 °F - 30.2 °F 70% 29.77 in 10.0 mi Calm Calm - N/A   Clear
2:15 AM 37.4 °F 34.9 °F 28.4 °F 70% 29.77 in 10.0 mi West 3.5 mph - N/A   Clear
2:35 AM 37.4 °F 34.9 °F 32.0 °F 81% 29.76 in 10.0 mi NNW 3.5 mph - N/A   Clear
2:55 AM 37.4 °F 32.8 °F 30.2 °F 75% 29.76 in 10.0 mi NW 5.8 mph - N/A   Clear
3:15 AM 37.4 °F 32.8 °F 30.2 °F 75% 29.75 in 10.0 mi North 5.8 mph - N/A   Clear
3:35 AM 37.4 °F 32.8 °F 30.2 °F 75% 29.75 in 10.0 mi NNW 5.8 mph - N/A   Clear
3:55 AM 37.4 °F 34.9 °F 30.2 °F 75% 29.76 in 10.0 mi WNW 3.5 mph - N/A   Clear
4:15 AM 35.6 °F 29.9 °F 30.2 °F 81% 29.76 in 10.0 mi NW 6.9 mph - N/A   Clear
4:35 AM 37.4 °F 32.8 °F 30.2 °F 75% 29.77 in 10.0 mi NNW 5.8 mph - N/A   Clear
4:55 AM 35.6 °F 28.6 °F 30.2 °F 81% 29.76 in 10.0 mi NNW 9.2 mph - N/A   Clear
5:15 AM 35.6 °F 29.2 °F 30.2 °F 81% 29.76 in 10.0 mi NNW 8.1 mph - N/A   Clear
5:55 AM 37.4 °F 31.4 °F 30.2 °F 75% 29.76 in 10.0 mi NNW 8.1 mph - N/A   Clear
6:15 AM 37.4 °F 30.3 °F 30.2 °F 75% 29.77 in 10.0 mi NNW 10.4 mph - N/A   Clear
6:35 AM 37.4 °F 30.8 °F 28.4 °F 70% 29.77 in 10.0 mi NNW 9.2 mph - N/A   Clear
6:55 AM 37.4 °F 32.8 °F 30.2 °F 75% 29.77 in 10.0 mi NNW 5.8 mph - N/A   Clear
7:15 AM 37.4 °F 32.8 °F 30.2 °F 75% 29.76 in 10.0 mi North 5.8 mph - N/A   Clear
7:35 AM 35.6 °F 29.9 °F 28.4 °F 75% 29.77 in 10.0 mi NNW 6.9 mph - N/A   Clear
7:55 AM 37.4 °F 33.8 °F 30.2 °F 75% 29.77 in 10.0 mi North 4.6 mph - N/A   Clear
8:15 AM 41.0 °F 35.2 °F 32.0 °F 70% 29.77 in 10.0 mi North 9.2 mph - N/A   Clear
8:55 AM 42.8 °F 39.3 °F 32.0 °F 66% 29.78 in 10.0 mi NNE 5.8 mph - N/A   Clear
9:15 AM 44.6 °F 40.7 °F 33.8 °F 66% 29.78 in 10.0 mi North 6.9 mph - N/A   Clear
9:35 AM 46.4 °F 42.9 °F 33.8 °F 62% 29.78 in 10.0 mi North 6.9 mph - N/A   Clear
9:55 AM 46.4 °F 43.5 °F 33.8 °F 62% 29.78 in 10.0 mi NNE 5.8 mph - N/A   Clear
10:15 AM 48.2 °F - 35.6 °F 62% 29.77 in 10.0 mi NE 5.8 mph - N/A   Clear
10:35 AM 50.0 °F - 35.6 °F 58% 29.77 in 10.0 mi NE 3.5 mph - N/A   Clear
10:55 AM 51.8 °F - 37.4 °F 58% 29.77 in 10.0 mi NE 3.5 mph - N/A   Clear
11:15 AM 53.6 °F - 37.4 °F 54% 29.77 in 10.0 mi East 4.6 mph - N/A   Clear
11:35 AM 53.6 °F - 37.4 °F 54% 29.75 in 10.0 mi East 4.6 mph - N/A   Clear
11:55 AM 53.6 °F - 37.4 °F 54% 29.74 in 10.0 mi East 6.9 mph - N/A   Clear
12:15 PM 55.4 °F - 37.4 °F 51% 29.73 in 10.0 mi East 4.6 mph - N/A   Clear
12:35 PM 57.2 °F - 37.4 °F 48% 29.72 in 10.0 mi Calm Calm - N/A   Clear
12:55 PM 59.0 °F - 37.4 °F 45% 29.72 in 10.0 mi SE 5.8 mph - N/A   Clear
1:15 PM 60.8 °F - 37.4 °F 42% 29.69 in 10.0 mi ESE 5.8 mph - N/A   Clear
1:35 PM 60.8 °F - 39.2 °F 45% 29.68 in 10.0 mi ESE 5.8 mph - N/A   Clear
1:55 PM 64.4 °F - 39.2 °F 40% 29.67 in 10.0 mi ESE 6.9 mph - N/A   Clear
2:15 PM 64.4 °F - 39.2 °F 40% 29.65 in 10.0 mi ESE 8.1 mph - N/A   Clear
2:35 PM 66.2 °F - 41.0 °F 40% 29.63 in 10.0 mi East 10.4 mph - N/A   Clear
2:55 PM 69.8 °F - 42.8 °F 38% 29.63 in 10.0 mi East 9.2 mph - N/A   Clear
3:15 PM 69.8 °F - 42.8 °F 38% 29.62 in 10.0 mi East 6.9 mph - N/A   Clear
3:35 PM 69.8 °F - 42.8 °F 38% 29.63 in 10.0 mi NE 6.9 mph - N/A   Clear
3:55 PM 69.8 °F - 42.8 °F 38% 29.63 in 10.0 mi NNE 10.4 mph - N/A   Clear
4:15 PM 69.8 °F - 41.0 °F 35% 29.61 in 10.0 mi NNE 12.7 mph - N/A   Clear
4:35 PM 66.2 °F - 39.2 °F 37% 29.61 in 10.0 mi NNE 11.5 mph - N/A   Clear
4:55 PM 64.4 °F - 39.2 °F 40% 29.60 in 10.0 mi NNE 13.8 mph - N/A   Clear
5:15 PM 62.6 °F - 39.2 °F 42% 29.60 in 10.0 mi NNW 3.5 mph - N/A   Clear
5:35 PM 60.8 °F - 37.4 °F 42% 29.60 in 10.0 mi NNE 9.2 mph - N/A   Clear
5:55 PM 59.0 °F - 37.4 °F 45% 29.60 in 10.0 mi NNE 11.5 mph - N/A   Clear
6:15 PM 57.2 °F - 37.4 °F 48% 29.62 in 10.0 mi NW 8.1 mph - N/A   Clear
6:35 PM 55.4 °F - 37.4 °F 51% 29.62 in 10.0 mi North 9.2 mph - N/A   Clear
6:55 PM 55.4 °F - 37.4 °F 51% 29.62 in 10.0 mi NNE 9.2 mph - N/A   Clear
7:15 PM 53.6 °F - 37.4 °F 54% 29.62 in 10.0 mi NE 4.6 mph - N/A   Clear
7:35 PM 51.8 °F - 37.4 °F 58% 29.62 in 10.0 mi North 3.5 mph - N/A   Clear
7:55 PM 51.8 °F - 37.4 °F 58% 29.61 in 10.0 mi NE 3.5 mph - N/A   Clear
8:15 PM 50.0 °F - 37.4 °F 62% 29.61 in 10.0 mi Calm Calm - N/A   Clear
8:35 PM 46.4 °F - 35.6 °F 66% 29.61 in 10.0 mi Calm Calm - N/A   Clear
8:55 PM 44.6 °F - 33.8 °F 66% 29.60 in 10.0 mi Calm Calm - N/A   Clear
9:15 PM 44.6 °F - 33.8 °F 66% 29.60 in 10.0 mi Calm Calm - N/A   Clear
9:35 PM 44.6 °F 43.1 °F 35.6 °F 71% 29.60 in 10.0 mi South 3.5 mph - N/A   Clear
9:55 PM 44.6 °F 41.4 °F 35.6 °F 71% 29.60 in 10.0 mi SSE 5.8 mph - N/A   Clear
10:15 PM 44.6 °F 43.1 °F 33.8 °F 66% 29.60 in 10.0 mi SE 3.5 mph - N/A   Clear
10:35 PM 46.4 °F 42.9 °F 33.8 °F 62% 29.60 in 10.0 mi South 6.9 mph - N/A   Clear
10:55 PM 50.0 °F - 35.6 °F 58% 29.60 in 10.0 mi South 11.5 mph - N/A   Clear
11:15 PM 57.2 °F - 35.6 °F 44% 29.60 in 10.0 mi SSW 13.8 mph - N/A   Clear
11:35 PM 59.0 °F - 35.6 °F 42% 29.60 in 10.0 mi SSW 15.0 mph - N/A   Clear
11:55 PM 60.8 °F - 35.6 °F 39% 29.60 in 10.0 mi SSW 15.0 mph - N/A   Clear